Year,Month,Day,Hour,Minute,Value (Times are PST for temperature in C)
2011,02,28,00,00,3.80
2011,02,28,00,01,3.80
2011,02,28,00,02,3.80
2011,02,28,00,03,3.80
2011,02,28,00,04,3.80
2011,02,28,00,05,3.80
2011,02,28,00,06,3.80
2011,02,28,00,07,3.80
2011,02,28,00,08,3.80
2011,02,28,00,09,3.80
2011,02,28,00,10,3.80
2011,02,28,00,11,3.80
2011,02,28,00,12,3.80
2011,02,28,00,13,3.80
2011,02,28,00,14,3.80
2011,02,28,00,15,3.80
2011,02,28,00,16,3.80
2011,02,28,00,17,3.80
2011,02,28,00,18,3.80
2011,02,28,00,19,3.80
2011,02,28,00,20,3.80
2011,02,28,00,21,3.80
2011,02,28,00,22,3.80
2011,02,28,00,23,3.80
2011,02,28,00,24,3.80
2011,02,28,00,25,3.80
2011,02,28,00,26,3.80
2011,02,28,00,27,3.80
2011,02,28,00,28,3.80
2011,02,28,00,29,3.80
2011,02,28,00,30,3.80
2011,02,28,00,31,3.80
2011,02,28,00,32,3.80
2011,02,28,00,33,3.80
2011,02,28,00,34,3.80
2011,02,28,00,35,3.80
2011,02,28,00,36,3.80
2011,02,28,00,37,3.80
2011,02,28,00,38,3.80
2011,02,28,00,39,3.80
2011,02,28,00,40,3.80
2011,02,28,00,41,3.90
2011,02,28,00,42,3.90
2011,02,28,00,43,4.00
2011,02,28,00,44,4.00
2011,02,28,00,45,4.00
2011,02,28,00,46,4.00
2011,02,28,00,47,4.00
2011,02,28,00,48,3.90
2011,02,28,00,49,3.90
2011,02,28,00,50,3.90
2011,02,28,00,51,3.80
2011,02,28,00,52,3.80
2011,02,28,00,53,3.80
2011,02,28,00,54,3.80
2011,02,28,00,55,3.80
2011,02,28,00,56,3.80
2011,02,28,00,57,3.80
2011,02,28,00,58,3.90
2011,02,28,00,59,3.90
2011,02,28,01,00,3.90
2011,02,28,01,01,3.90
2011,02,28,01,02,3.90
2011,02,28,01,03,4.00
2011,02,28,01,04,4.00
2011,02,28,01,05,4.00
2011,02,28,01,06,4.00
2011,02,28,01,07,4.00
2011,02,28,01,08,4.10
2011,02,28,01,09,4.10
2011,02,28,01,10,4.10
2011,02,28,01,11,4.10
2011,02,28,01,12,4.10
2011,02,28,01,13,4.10
2011,02,28,01,14,4.00
2011,02,28,01,15,4.00
2011,02,28,01,16,4.00
2011,02,28,01,17,4.00
2011,02,28,01,18,4.00
2011,02,28,01,19,4.00
2011,02,28,01,20,4.00
2011,02,28,01,21,4.00
2011,02,28,01,22,3.90
2011,02,28,01,23,3.90
2011,02,28,01,24,3.90
2011,02,28,01,25,4.00
2011,02,28,01,26,4.00
2011,02,28,01,27,4.00
2011,02,28,01,28,4.00
2011,02,28,01,29,4.00
2011,02,28,01,30,4.00
2011,02,28,01,31,4.00
2011,02,28,01,32,4.00
2011,02,28,01,33,4.10
2011,02,28,01,34,4.10
2011,02,28,01,35,4.10
2011,02,28,01,36,4.10
2011,02,28,01,37,4.20
2011,02,28,01,38,4.20
2011,02,28,01,39,4.20
2011,02,28,01,40,4.10
2011,02,28,01,41,4.10
2011,02,28,01,42,4.00
2011,02,28,01,43,4.00
2011,02,28,01,44,4.00
2011,02,28,01,45,4.00
2011,02,28,01,46,3.90
2011,02,28,01,47,3.80
2011,02,28,01,48,3.70
2011,02,28,01,49,3.40
2011,02,28,01,50,3.10
2011,02,28,01,51,2.80
2011,02,28,01,52,2.60
2011,02,28,01,53,2.40
2011,02,28,01,54,2.30
2011,02,28,01,55,2.20
2011,02,28,01,56,2.10
2011,02,28,01,57,2.10
2011,02,28,01,58,2.00
2011,02,28,01,59,2.00
2011,02,28,02,00,1.90
2011,02,28,02,01,1.90
2011,02,28,02,02,1.80
2011,02,28,02,03,1.80
2011,02,28,02,04,1.70
2011,02,28,02,05,1.70
2011,02,28,02,06,1.60
2011,02,28,02,07,1.60
2011,02,28,02,08,1.60
2011,02,28,02,09,1.50
2011,02,28,02,10,1.50
2011,02,28,02,11,1.50
2011,02,28,02,12,1.50
2011,02,28,02,13,1.40
2011,02,28,02,14,1.40
2011,02,28,02,15,1.40
2011,02,28,02,16,1.40
2011,02,28,02,17,1.40
2011,02,28,02,18,1.30
2011,02,28,02,19,1.30
2011,02,28,02,20,1.30
2011,02,28,02,21,1.30
2011,02,28,02,22,1.30
2011,02,28,02,23,1.30
2011,02,28,02,24,1.40
2011,02,28,02,25,1.40
2011,02,28,02,26,1.40
2011,02,28,02,27,1.50
2011,02,28,02,28,1.50
2011,02,28,02,29,1.60
2011,02,28,02,30,1.60
2011,02,28,02,31,1.70
2011,02,28,02,32,1.70
2011,02,28,02,33,1.80
2011,02,28,02,34,1.80
2011,02,28,02,35,1.80
2011,02,28,02,36,1.80
2011,02,28,02,37,1.90
2011,02,28,02,38,2.00
2011,02,28,02,39,2.00
2011,02,28,02,40,2.00
2011,02,28,02,41,2.10
2011,02,28,02,42,2.10
2011,02,28,02,43,2.10
2011,02,28,02,44,2.10
2011,02,28,02,45,2.20
2011,02,28,02,46,2.20
2011,02,28,02,47,2.20
2011,02,28,02,48,2.20
2011,02,28,02,49,2.20
2011,02,28,02,50,2.20
2011,02,28,02,51,2.20
2011,02,28,02,52,2.20
2011,02,28,02,53,2.20
2011,02,28,02,54,2.30
2011,02,28,02,55,2.30
2011,02,28,02,56,2.30
2011,02,28,02,57,2.30
2011,02,28,02,58,2.30
2011,02,28,02,59,2.30
2011,02,28,03,00,2.30
2011,02,28,03,01,2.30
2011,02,28,03,02,2.30
2011,02,28,03,03,2.30
2011,02,28,03,04,2.30
2011,02,28,03,05,2.40
2011,02,28,03,06,2.40
2011,02,28,03,07,2.40
2011,02,28,03,08,2.40
2011,02,28,03,09,2.40
2011,02,28,03,10,2.40
2011,02,28,03,11,2.40
2011,02,28,03,12,2.30
2011,02,28,03,13,2.30
2011,02,28,03,14,2.20
2011,02,28,03,15,2.20
2011,02,28,03,16,2.20
2011,02,28,03,17,2.20
2011,02,28,03,18,2.10
2011,02,28,03,19,2.10
2011,02,28,03,20,2.10
2011,02,28,03,21,2.00
2011,02,28,03,22,2.00
2011,02,28,03,23,2.00
2011,02,28,03,24,1.90
2011,02,28,03,25,1.90
2011,02,28,03,26,1.90
2011,02,28,03,27,1.90
2011,02,28,03,28,1.90
2011,02,28,03,29,1.90
2011,02,28,03,30,1.90
2011,02,28,03,31,2.00
2011,02,28,03,32,2.00
2011,02,28,03,33,2.00
2011,02,28,03,34,2.00
2011,02,28,03,35,2.10
2011,02,28,03,36,2.10
2011,02,28,03,37,2.10
2011,02,28,03,38,2.20
2011,02,28,03,39,2.20
2011,02,28,03,40,2.20
2011,02,28,03,41,2.20
2011,02,28,03,42,2.20
2011,02,28,03,43,2.20
2011,02,28,03,44,2.20
2011,02,28,03,45,2.20
2011,02,28,03,46,2.20
2011,02,28,03,47,2.20
2011,02,28,03,48,2.20
2011,02,28,03,49,2.20
2011,02,28,03,50,2.30
2011,02,28,03,51,2.30
2011,02,28,03,52,2.40
2011,02,28,03,53,2.40
2011,02,28,03,54,2.40
2011,02,28,03,55,2.40
2011,02,28,03,56,2.40
2011,02,28,03,57,2.40
2011,02,28,03,58,2.40
2011,02,28,03,59,2.40
2011,02,28,04,00,2.40
2011,02,28,04,01,2.40
2011,02,28,04,02,2.40
2011,02,28,04,03,2.40
2011,02,28,04,04,2.40
2011,02,28,04,05,2.40
2011,02,28,04,06,2.40
2011,02,28,04,07,2.40
2011,02,28,04,08,2.40
2011,02,28,04,09,2.40
2011,02,28,04,10,2.40
2011,02,28,04,11,2.40
2011,02,28,04,12,2.40
2011,02,28,04,13,2.40
2011,02,28,04,14,2.40
2011,02,28,04,15,2.50
2011,02,28,04,16,2.50
2011,02,28,04,17,2.50
2011,02,28,04,18,2.50
2011,02,28,04,19,2.50
2011,02,28,04,20,2.50
2011,02,28,04,21,2.50
2011,02,28,04,22,2.50
2011,02,28,04,23,2.50
2011,02,28,04,24,2.60
2011,02,28,04,25,2.50
2011,02,28,04,26,2.50
2011,02,28,04,27,2.50
2011,02,28,04,28,2.50
2011,02,28,04,29,2.50
2011,02,28,04,30,2.50
2011,02,28,04,31,2.50
2011,02,28,04,32,2.60
2011,02,28,04,33,2.60
2011,02,28,04,34,2.60
2011,02,28,04,35,2.60
2011,02,28,04,36,2.60
2011,02,28,04,37,2.60
2011,02,28,04,38,2.60
2011,02,28,04,39,2.60
2011,02,28,04,40,2.60
2011,02,28,04,41,2.60
2011,02,28,04,42,2.60
2011,02,28,04,43,2.60
2011,02,28,04,44,2.60
2011,02,28,04,45,2.60
2011,02,28,04,46,2.50
2011,02,28,04,47,2.50
2011,02,28,04,48,2.50
2011,02,28,04,49,2.40
2011,02,28,04,50,2.40
2011,02,28,04,51,2.40
2011,02,28,04,52,2.40
2011,02,28,04,53,2.30
2011,02,28,04,54,2.30
2011,02,28,04,55,2.30
2011,02,28,04,56,2.20
2011,02,28,04,57,2.20
2011,02,28,04,58,2.20
2011,02,28,04,59,2.20
2011,02,28,05,00,2.20
2011,02,28,05,01,2.10
2011,02,28,05,02,2.10
2011,02,28,05,03,2.10
2011,02,28,05,04,2.00
2011,02,28,05,05,2.00
2011,02,28,05,06,2.00
2011,02,28,05,07,1.90
2011,02,28,05,08,1.90
2011,02,28,05,09,1.90
2011,02,28,05,10,1.90
2011,02,28,05,11,1.90
2011,02,28,05,12,1.90
2011,02,28,05,13,1.80
2011,02,28,05,14,1.80
2011,02,28,05,15,1.80
2011,02,28,05,16,1.80
2011,02,28,05,17,1.80
2011,02,28,05,18,1.80
2011,02,28,05,19,1.80
2011,02,28,05,20,1.80
2011,02,28,05,21,1.80
2011,02,28,05,22,1.80
2011,02,28,05,23,1.80
2011,02,28,05,24,1.80
2011,02,28,05,25,1.80
2011,02,28,05,26,1.80
2011,02,28,05,27,1.80
2011,02,28,05,28,1.80
2011,02,28,05,29,1.80
2011,02,28,05,30,1.80
2011,02,28,05,31,1.80
2011,02,28,05,32,1.80
2011,02,28,05,33,1.80
2011,02,28,05,34,1.80
2011,02,28,05,35,1.80
2011,02,28,05,36,1.70
2011,02,28,05,37,1.60
2011,02,28,05,38,1.60
2011,02,28,05,39,1.60
2011,02,28,05,40,1.60
2011,02,28,05,41,1.50
2011,02,28,05,42,1.50
2011,02,28,05,43,1.50
2011,02,28,05,44,1.50
2011,02,28,05,45,1.40
2011,02,28,05,46,1.40
2011,02,28,05,47,1.40
2011,02,28,05,48,1.30
2011,02,28,05,49,1.30
2011,02,28,05,50,1.30
2011,02,28,05,51,1.30
2011,02,28,05,52,1.30
2011,02,28,05,53,1.30
2011,02,28,05,54,1.30
2011,02,28,05,55,1.30
2011,02,28,05,56,1.30
2011,02,28,05,57,1.30
2011,02,28,05,58,1.30
2011,02,28,05,59,1.30
2011,02,28,06,00,1.30
2011,02,28,06,01,1.30
2011,02,28,06,02,1.30
2011,02,28,06,03,1.30
2011,02,28,06,04,1.40
2011,02,28,06,05,1.40
2011,02,28,06,06,1.40
2011,02,28,06,07,1.40
2011,02,28,06,08,1.50
2011,02,28,06,09,1.50
2011,02,28,06,10,1.50
2011,02,28,06,11,1.50
2011,02,28,06,12,1.50
2011,02,28,06,13,1.50
2011,02,28,06,14,1.50
2011,02,28,06,15,1.50
2011,02,28,06,16,1.50
2011,02,28,06,17,1.50
2011,02,28,06,18,1.50
2011,02,28,06,19,1.50
2011,02,28,06,20,1.50
2011,02,28,06,21,1.50
2011,02,28,06,22,1.50
2011,02,28,06,23,1.60
2011,02,28,06,24,1.60
2011,02,28,06,25,1.60
2011,02,28,06,26,1.60
2011,02,28,06,27,1.60
2011,02,28,06,28,1.60
2011,02,28,06,29,1.70
2011,02,28,06,30,1.70
2011,02,28,06,31,1.70
2011,02,28,06,32,1.70
2011,02,28,06,33,1.80
2011,02,28,06,34,1.80
2011,02,28,06,35,1.80
2011,02,28,06,36,1.70
2011,02,28,06,37,1.70
2011,02,28,06,38,1.60
2011,02,28,06,39,1.60
2011,02,28,06,40,1.50
2011,02,28,06,41,1.50
2011,02,28,06,42,1.50
2011,02,28,06,43,1.50
2011,02,28,06,44,1.50
2011,02,28,06,45,1.50
2011,02,28,06,46,1.50
2011,02,28,06,47,1.50
2011,02,28,06,48,1.50
2011,02,28,06,49,1.50
2011,02,28,06,50,1.50
2011,02,28,06,51,1.60
2011,02,28,06,52,1.60
2011,02,28,06,53,1.60
2011,02,28,06,54,1.60
2011,02,28,06,55,1.60
2011,02,28,06,56,1.50
2011,02,28,06,57,1.50
2011,02,28,06,58,1.50
2011,02,28,06,59,1.50
2011,02,28,07,00,1.50
2011,02,28,07,01,1.50
2011,02,28,07,02,1.50
2011,02,28,07,03,1.50
2011,02,28,07,04,1.50
2011,02,28,07,05,1.50
2011,02,28,07,06,1.50
2011,02,28,07,07,1.50
2011,02,28,07,08,1.50
2011,02,28,07,09,1.50
2011,02,28,07,10,1.50
2011,02,28,07,11,1.50
2011,02,28,07,12,1.50
2011,02,28,07,13,1.50
2011,02,28,07,14,1.50
2011,02,28,07,15,1.50
2011,02,28,07,16,1.50
2011,02,28,07,17,1.60
2011,02,28,07,18,1.60
2011,02,28,07,19,1.60
2011,02,28,07,20,1.60
2011,02,28,07,21,1.60
2011,02,28,07,22,1.60
2011,02,28,07,23,1.60
2011,02,28,07,24,1.70
2011,02,28,07,25,1.70
2011,02,28,07,26,1.70
2011,02,28,07,27,1.80
2011,02,28,07,28,1.80
2011,02,28,07,29,1.80
2011,02,28,07,30,1.80
2011,02,28,07,31,1.80
2011,02,28,07,32,1.80
2011,02,28,07,33,1.80
2011,02,28,07,34,1.80
2011,02,28,07,35,1.90
2011,02,28,07,36,1.90
2011,02,28,07,37,1.90
2011,02,28,07,38,1.90
2011,02,28,07,39,1.90
2011,02,28,07,40,1.90
2011,02,28,07,41,1.90
2011,02,28,07,42,1.90
2011,02,28,07,43,1.90
2011,02,28,07,44,1.90
2011,02,28,07,45,1.90
2011,02,28,07,46,1.90
2011,02,28,07,47,1.90
2011,02,28,07,48,1.90
2011,02,28,07,49,1.90
2011,02,28,07,50,1.90
2011,02,28,07,51,1.90
2011,02,28,07,52,1.90
2011,02,28,07,53,1.90
2011,02,28,07,54,1.90
2011,02,28,07,55,1.90
2011,02,28,07,56,1.90
2011,02,28,07,57,1.90
2011,02,28,07,58,1.90
2011,02,28,07,59,1.90
2011,02,28,08,00,1.90
2011,02,28,08,01,1.90
2011,02,28,08,02,1.90
2011,02,28,08,03,1.90
2011,02,28,08,04,1.90
2011,02,28,08,05,2.00
2011,02,28,08,06,2.00
2011,02,28,08,07,2.00
2011,02,28,08,08,2.10
2011,02,28,08,09,2.10
2011,02,28,08,10,2.10
2011,02,28,08,11,2.20
2011,02,28,08,12,2.20
2011,02,28,08,13,2.20
2011,02,28,08,14,2.20
2011,02,28,08,15,2.20
2011,02,28,08,16,2.30
2011,02,28,08,17,2.30
2011,02,28,08,18,2.40
2011,02,28,08,19,2.40
2011,02,28,08,20,2.40
2011,02,28,08,21,2.40
2011,02,28,08,22,2.50
2011,02,28,08,23,2.50
2011,02,28,08,24,2.60
2011,02,28,08,25,2.60
2011,02,28,08,26,2.70
2011,02,28,08,27,2.70
2011,02,28,08,28,2.70
2011,02,28,08,29,2.70
2011,02,28,08,30,2.70
2011,02,28,08,31,2.70
2011,02,28,08,32,2.80
2011,02,28,08,33,2.90
2011,02,28,08,34,2.90
2011,02,28,08,35,2.80
2011,02,28,08,36,2.90
2011,02,28,08,37,2.90
2011,02,28,08,38,2.90
2011,02,28,08,39,2.90
2011,02,28,08,40,3.00
2011,02,28,08,41,3.10
2011,02,28,08,42,3.10
2011,02,28,08,43,3.10
2011,02,28,08,44,3.20
2011,02,28,08,45,3.30
2011,02,28,08,46,3.30
2011,02,28,08,47,3.40
2011,02,28,08,48,3.50
2011,02,28,08,49,3.60
2011,02,28,08,50,3.70
2011,02,28,08,51,3.80
2011,02,28,08,52,3.80
2011,02,28,08,53,4.00
2011,02,28,08,54,4.00
2011,02,28,08,55,4.10
2011,02,28,08,56,4.20
2011,02,28,08,57,4.30
2011,02,28,08,58,4.30
2011,02,28,08,59,4.30
2011,02,28,09,00,4.30
2011,02,28,09,01,4.40
2011,02,28,09,02,4.30
2011,02,28,09,03,4.20
2011,02,28,09,04,4.20
2011,02,28,09,05,4.20
2011,02,28,09,06,4.20
2011,02,28,09,07,4.20
2011,02,28,09,08,4.20
2011,02,28,09,09,4.20
2011,02,28,09,10,4.20
2011,02,28,09,11,4.30
2011,02,28,09,12,4.30
2011,02,28,09,13,4.40
2011,02,28,09,14,4.40
2011,02,28,09,15,4.40
2011,02,28,09,16,4.40
2011,02,28,09,17,4.30
2011,02,28,09,18,4.20
2011,02,28,09,19,4.20
2011,02,28,09,20,4.10
2011,02,28,09,21,4.00
2011,02,28,09,22,4.00
2011,02,28,09,23,3.90
2011,02,28,09,24,3.80
2011,02,28,09,25,3.80
2011,02,28,09,26,3.80
2011,02,28,09,27,3.90
2011,02,28,09,28,4.00
2011,02,28,09,29,4.00
2011,02,28,09,30,4.10
2011,02,28,09,31,4.20
2011,02,28,09,32,4.20
2011,02,28,09,33,4.30
2011,02,28,09,34,4.40
2011,02,28,09,35,4.50
2011,02,28,09,36,4.50
2011,02,28,09,37,4.60
2011,02,28,09,38,4.60
2011,02,28,09,39,4.70
2011,02,28,09,40,4.70
2011,02,28,09,41,4.60
2011,02,28,09,42,4.70
2011,02,28,09,43,4.70
2011,02,28,09,44,4.70
2011,02,28,09,45,4.80
2011,02,28,09,46,4.80
2011,02,28,09,47,4.80
2011,02,28,09,48,4.80
2011,02,28,09,49,4.70
2011,02,28,09,50,4.70
2011,02,28,09,51,4.70
2011,02,28,09,52,4.70
2011,02,28,09,53,4.70
2011,02,28,09,54,4.70
2011,02,28,09,55,4.70
2011,02,28,09,56,4.80
2011,02,28,09,57,4.80
2011,02,28,09,58,4.80
2011,02,28,09,59,4.80
2011,02,28,10,00,4.80
2011,02,28,10,01,4.80
2011,02,28,10,02,4.80
2011,02,28,10,03,4.80
2011,02,28,10,04,4.90
2011,02,28,10,05,4.90
2011,02,28,10,06,4.90
2011,02,28,10,07,4.90
2011,02,28,10,08,4.90
2011,02,28,10,09,4.90
2011,02,28,10,10,4.90
2011,02,28,10,11,4.90
2011,02,28,10,12,5.00
2011,02,28,10,13,5.10
2011,02,28,10,14,5.10
2011,02,28,10,15,5.00
2011,02,28,10,16,4.90
2011,02,28,10,17,4.90
2011,02,28,10,18,4.90
2011,02,28,10,19,4.90
2011,02,28,10,20,4.90
2011,02,28,10,21,4.90
2011,02,28,10,22,4.90
2011,02,28,10,23,4.90
2011,02,28,10,24,4.90
2011,02,28,10,25,4.90
2011,02,28,10,26,4.90
2011,02,28,10,27,4.80
2011,02,28,10,28,4.60
2011,02,28,10,29,4.60
2011,02,28,10,30,4.60
2011,02,28,10,31,4.60
2011,02,28,10,32,4.50
2011,02,28,10,33,4.40
2011,02,28,10,34,4.40
2011,02,28,10,35,4.30
2011,02,28,10,36,4.20
2011,02,28,10,37,4.30
2011,02,28,10,38,4.30
2011,02,28,10,39,4.20
2011,02,28,10,40,4.30
2011,02,28,10,41,4.30
2011,02,28,10,42,4.50
2011,02,28,10,43,4.60
2011,02,28,10,44,4.60
2011,02,28,10,45,4.80
2011,02,28,10,46,4.90
2011,02,28,10,47,4.90
2011,02,28,10,48,4.90
2011,02,28,10,49,5.00
2011,02,28,10,50,5.10
2011,02,28,10,51,5.10
2011,02,28,10,52,5.10
2011,02,28,10,53,5.10
2011,02,28,10,54,5.10
2011,02,28,10,55,5.10
2011,02,28,10,56,5.10
2011,02,28,10,57,5.00
2011,02,28,10,58,4.90
2011,02,28,10,59,5.00
2011,02,28,11,00,5.10
2011,02,28,11,01,5.10
2011,02,28,11,02,5.20
2011,02,28,11,03,5.40
2011,02,28,11,04,5.50
2011,02,28,11,05,5.50
2011,02,28,11,06,5.50
2011,02,28,11,07,5.60
2011,02,28,11,08,5.60
2011,02,28,11,09,5.70
2011,02,28,11,10,5.70
2011,02,28,11,11,5.60
2011,02,28,11,12,5.60
2011,02,28,11,13,5.60
2011,02,28,11,14,5.60
2011,02,28,11,15,5.50
2011,02,28,11,16,5.50
2011,02,28,11,17,5.40
2011,02,28,11,18,5.30
2011,02,28,11,19,5.20
2011,02,28,11,20,5.20
2011,02,28,11,21,5.20
2011,02,28,11,22,5.20
2011,02,28,11,23,5.20
2011,02,28,11,24,5.20
2011,02,28,11,25,5.20
2011,02,28,11,26,5.10
2011,02,28,11,27,5.10
2011,02,28,11,28,5.10
2011,02,28,11,29,5.10
2011,02,28,11,30,5.10
2011,02,28,11,31,5.20
2011,02,28,11,32,5.20
2011,02,28,11,33,5.20
2011,02,28,11,34,5.20
2011,02,28,11,35,5.30
2011,02,28,11,36,5.30
2011,02,28,11,37,5.30
2011,02,28,11,38,5.20
2011,02,28,11,39,5.30
2011,02,28,11,40,5.30
2011,02,28,11,41,5.30
2011,02,28,11,42,5.30
2011,02,28,11,43,5.30
2011,02,28,11,44,5.40
2011,02,28,11,45,5.50
2011,02,28,11,46,5.50
2011,02,28,11,47,5.50
2011,02,28,11,48,5.50
2011,02,28,11,49,5.30
2011,02,28,11,50,5.20
2011,02,28,11,51,5.10
2011,02,28,11,52,5.10
2011,02,28,11,53,5.00
2011,02,28,11,54,4.90
2011,02,28,11,55,4.90
2011,02,28,11,56,4.90
2011,02,28,11,57,4.90
2011,02,28,11,58,4.90
2011,02,28,11,59,4.90
2011,02,28,12,00,4.90
2011,02,28,12,01,4.90
2011,02,28,12,02,4.90
2011,02,28,12,03,4.90
2011,02,28,12,04,4.90
2011,02,28,12,05,4.80
2011,02,28,12,06,4.80
2011,02,28,12,07,4.70
2011,02,28,12,08,4.60
2011,02,28,12,09,4.50
2011,02,28,12,10,4.30
2011,02,28,12,11,4.10
2011,02,28,12,12,3.90
2011,02,28,12,13,3.70
2011,02,28,12,14,3.60
2011,02,28,12,15,3.60
2011,02,28,12,16,3.60
2011,02,28,12,17,3.70
2011,02,28,12,18,3.80
2011,02,28,12,19,3.90
2011,02,28,12,20,4.00
2011,02,28,12,21,4.10
2011,02,28,12,22,4.10
2011,02,28,12,23,4.10
2011,02,28,12,24,4.20
2011,02,28,12,25,4.30
2011,02,28,12,26,4.40
2011,02,28,12,27,4.40
2011,02,28,12,28,4.40
2011,02,28,12,29,4.30
2011,02,28,12,30,4.30
2011,02,28,12,31,4.20
2011,02,28,12,32,4.30
2011,02,28,12,33,4.30
2011,02,28,12,34,4.30
2011,02,28,12,35,4.20
2011,02,28,12,36,4.20
2011,02,28,12,37,4.20
2011,02,28,12,38,4.10
2011,02,28,12,39,4.00
2011,02,28,12,40,4.00
2011,02,28,12,41,3.90
2011,02,28,12,42,3.80
2011,02,28,12,43,3.80
2011,02,28,12,44,3.80
2011,02,28,12,45,3.80
2011,02,28,12,46,3.80
2011,02,28,12,47,3.70
2011,02,28,12,48,3.80
2011,02,28,12,49,3.80
2011,02,28,12,50,3.80
2011,02,28,12,51,3.80
2011,02,28,12,52,3.90
2011,02,28,12,53,4.00
2011,02,28,12,54,4.00
2011,02,28,12,55,4.10
2011,02,28,12,56,4.10
2011,02,28,12,57,4.10
2011,02,28,12,58,4.10
2011,02,28,12,59,4.10
2011,02,28,13,00,4.10
2011,02,28,13,01,4.10
2011,02,28,13,02,4.10
2011,02,28,13,03,4.20
2011,02,28,13,04,4.20
2011,02,28,13,05,4.20
2011,02,28,13,06,4.20
2011,02,28,13,07,4.30
2011,02,28,13,08,4.30
2011,02,28,13,09,4.40
2011,02,28,13,10,4.50
2011,02,28,13,11,4.50
2011,02,28,13,12,4.60
2011,02,28,13,13,4.60
2011,02,28,13,14,4.70
2011,02,28,13,15,4.80
2011,02,28,13,16,4.90
2011,02,28,13,17,5.10
2011,02,28,13,18,5.10
2011,02,28,13,19,5.10
2011,02,28,13,20,5.00
2011,02,28,13,21,4.90
2011,02,28,13,22,4.80
2011,02,28,13,23,4.80
2011,02,28,13,24,4.80
2011,02,28,13,25,4.80
2011,02,28,13,26,4.80
2011,02,28,13,27,4.80
2011,02,28,13,28,4.80
2011,02,28,13,29,4.80
2011,02,28,13,30,4.70
2011,02,28,13,31,4.70
2011,02,28,13,32,4.80
2011,02,28,13,33,4.80
2011,02,28,13,34,4.80
2011,02,28,13,35,4.80
2011,02,28,13,36,4.80
2011,02,28,13,37,4.90
2011,02,28,13,38,5.00
2011,02,28,13,39,5.10
2011,02,28,13,40,5.10
2011,02,28,13,41,5.10
2011,02,28,13,42,5.10
2011,02,28,13,43,5.20
2011,02,28,13,44,5.30
2011,02,28,13,45,5.30
2011,02,28,13,46,5.30
2011,02,28,13,47,5.40
2011,02,28,13,48,5.50
2011,02,28,13,49,5.60
2011,02,28,13,50,5.60
2011,02,28,13,51,5.60
2011,02,28,13,52,5.70
2011,02,28,13,53,5.70
2011,02,28,13,54,5.70
2011,02,28,13,55,5.70
2011,02,28,13,56,5.70
2011,02,28,13,57,5.60
2011,02,28,13,58,5.60
2011,02,28,13,59,5.60
2011,02,28,14,00,5.60
2011,02,28,14,01,5.60
2011,02,28,14,02,5.50
2011,02,28,14,03,5.50
2011,02,28,14,04,5.60
2011,02,28,14,05,5.60
2011,02,28,14,06,5.40
2011,02,28,14,07,5.40
2011,02,28,14,08,5.30
2011,02,28,14,09,5.30
2011,02,28,14,10,5.40
2011,02,28,14,11,5.40
2011,02,28,14,12,5.50
2011,02,28,14,13,5.60
2011,02,28,14,14,5.60
2011,02,28,14,15,5.70
2011,02,28,14,16,5.70
2011,02,28,14,17,5.70
2011,02,28,14,18,5.60
2011,02,28,14,19,5.60
2011,02,28,14,20,5.60
2011,02,28,14,21,5.60
2011,02,28,14,22,5.70
2011,02,28,14,23,5.60
2011,02,28,14,24,5.60
2011,02,28,14,25,5.60
2011,02,28,14,26,5.60
2011,02,28,14,27,5.60
2011,02,28,14,28,5.70
2011,02,28,14,29,5.70
2011,02,28,14,30,5.70
2011,02,28,14,31,5.70
2011,02,28,14,32,5.60
2011,02,28,14,33,5.60
2011,02,28,14,34,5.50
2011,02,28,14,35,5.40
2011,02,28,14,36,5.30
2011,02,28,14,37,5.20
2011,02,28,14,38,5.10
2011,02,28,14,39,5.10
2011,02,28,14,40,5.10
2011,02,28,14,41,5.00
2011,02,28,14,42,4.90
2011,02,28,14,43,4.80
2011,02,28,14,44,4.80
2011,02,28,14,45,4.80
2011,02,28,14,46,4.80
2011,02,28,14,47,4.80
2011,02,28,14,48,4.90
2011,02,28,14,49,4.90
2011,02,28,14,50,4.90
2011,02,28,14,51,4.90
2011,02,28,14,52,4.80
2011,02,28,14,53,4.70
2011,02,28,14,54,4.70
2011,02,28,14,55,4.70
2011,02,28,14,56,4.60
2011,02,28,14,57,4.50
2011,02,28,14,58,4.40
2011,02,28,14,59,4.40
2011,02,28,15,00,4.50
2011,02,28,15,01,4.40
2011,02,28,15,02,4.40
2011,02,28,15,03,4.30
2011,02,28,15,04,4.40
2011,02,28,15,05,4.50
2011,02,28,15,06,4.50
2011,02,28,15,07,4.50
2011,02,28,15,08,4.50
2011,02,28,15,09,4.40
2011,02,28,15,10,4.40
2011,02,28,15,11,4.40
2011,02,28,15,12,4.40
2011,02,28,15,13,4.50
2011,02,28,15,14,4.60
2011,02,28,15,15,4.60
2011,02,28,15,16,4.70
2011,02,28,15,17,4.70
2011,02,28,15,18,4.80
2011,02,28,15,19,4.80
2011,02,28,15,20,4.90
2011,02,28,15,21,4.90
2011,02,28,15,22,4.90
2011,02,28,15,23,4.90
2011,02,28,15,24,4.90
2011,02,28,15,25,4.90
2011,02,28,15,26,4.90
2011,02,28,15,27,4.80
2011,02,28,15,28,4.80
2011,02,28,15,29,4.80
2011,02,28,15,30,4.70
2011,02,28,15,31,4.80
2011,02,28,15,32,4.80
2011,02,28,15,33,4.70
2011,02,28,15,34,4.60
2011,02,28,15,35,4.50
2011,02,28,15,36,4.30
2011,02,28,15,37,4.30
2011,02,28,15,38,4.20
2011,02,28,15,39,4.20
2011,02,28,15,40,4.20
2011,02,28,15,41,4.20
2011,02,28,15,42,4.20
2011,02,28,15,43,4.30
2011,02,28,15,44,4.40
2011,02,28,15,45,4.40
2011,02,28,15,46,4.50
2011,02,28,15,47,4.60
2011,02,28,15,48,4.60
2011,02,28,15,49,4.70
2011,02,28,15,50,4.80
2011,02,28,15,51,4.90
2011,02,28,15,52,4.90
2011,02,28,15,53,5.00
2011,02,28,15,54,5.10
2011,02,28,15,55,5.30
2011,02,28,15,56,5.40
2011,02,28,15,57,5.50
2011,02,28,15,58,5.50
2011,02,28,15,59,5.50
2011,02,28,16,00,5.50
2011,02,28,16,01,5.40
2011,02,28,16,02,5.30
2011,02,28,16,03,5.30
2011,02,28,16,04,5.30
2011,02,28,16,05,5.20
2011,02,28,16,06,5.20
2011,02,28,16,07,5.20
2011,02,28,16,08,5.20
2011,02,28,16,09,5.20
2011,02,28,16,10,5.20
2011,02,28,16,11,5.20
2011,02,28,16,12,5.20
2011,02,28,16,13,5.10
2011,02,28,16,14,5.10
2011,02,28,16,15,5.10
2011,02,28,16,16,4.90
2011,02,28,16,17,4.90
2011,02,28,16,18,4.90
2011,02,28,16,19,4.80
2011,02,28,16,20,4.80
2011,02,28,16,21,4.70
2011,02,28,16,22,4.70
2011,02,28,16,23,4.70
2011,02,28,16,24,4.80
2011,02,28,16,25,4.80
2011,02,28,16,26,4.90
2011,02,28,16,27,4.90
2011,02,28,16,28,4.90
2011,02,28,16,29,4.90
2011,02,28,16,30,4.90
2011,02,28,16,31,4.90
2011,02,28,16,32,5.00
2011,02,28,16,33,5.10
2011,02,28,16,34,5.10
2011,02,28,16,35,5.10
2011,02,28,16,36,5.10
2011,02,28,16,37,5.10
2011,02,28,16,38,5.10
2011,02,28,16,39,5.00
2011,02,28,16,40,4.90
2011,02,28,16,41,4.90
2011,02,28,16,42,4.90
2011,02,28,16,43,4.90
2011,02,28,16,44,4.90
2011,02,28,16,45,4.90
2011,02,28,16,46,4.90
2011,02,28,16,47,4.90
2011,02,28,16,48,4.80
2011,02,28,16,49,4.80
2011,02,28,16,50,4.80
2011,02,28,16,51,4.80
2011,02,28,16,52,4.70
2011,02,28,16,53,4.70
2011,02,28,16,54,4.70
2011,02,28,16,55,4.70
2011,02,28,16,56,4.70
2011,02,28,16,57,4.60
2011,02,28,16,58,4.50
2011,02,28,16,59,4.50
2011,02,28,17,00,4.40
2011,02,28,17,01,4.40
2011,02,28,17,02,4.40
2011,02,28,17,03,4.30
2011,02,28,17,04,4.30
2011,02,28,17,05,4.30
2011,02,28,17,06,4.30
2011,02,28,17,07,4.20
2011,02,28,17,08,4.20
2011,02,28,17,09,4.20
2011,02,28,17,10,4.20
2011,02,28,17,11,4.20
2011,02,28,17,12,4.20
2011,02,28,17,13,4.10
2011,02,28,17,14,4.10
2011,02,28,17,15,4.10
2011,02,28,17,16,4.10
2011,02,28,17,17,4.00
2011,02,28,17,18,4.00
2011,02,28,17,19,4.00
2011,02,28,17,20,3.90
2011,02,28,17,21,3.90
2011,02,28,17,22,3.90
2011,02,28,17,23,3.80
2011,02,28,17,24,3.80
2011,02,28,17,25,3.80
2011,02,28,17,26,3.80
2011,02,28,17,27,3.80
2011,02,28,17,28,3.70
2011,02,28,17,29,3.60
2011,02,28,17,30,3.50
2011,02,28,17,31,3.50
2011,02,28,17,32,3.30
2011,02,28,17,33,3.20
2011,02,28,17,34,3.10
2011,02,28,17,35,2.90
2011,02,28,17,36,2.80
2011,02,28,17,37,2.70
2011,02,28,17,38,2.50
2011,02,28,17,39,2.40
2011,02,28,17,40,2.40
2011,02,28,17,41,2.30
2011,02,28,17,42,2.20
2011,02,28,17,43,2.10
2011,02,28,17,44,2.00
2011,02,28,17,45,1.90
2011,02,28,17,46,1.80
2011,02,28,17,47,1.60
2011,02,28,17,48,1.50
2011,02,28,17,49,1.40
2011,02,28,17,50,1.30
2011,02,28,17,51,1.30
2011,02,28,17,52,1.20
2011,02,28,17,53,1.10
2011,02,28,17,54,1.10
2011,02,28,17,55,1.00
2011,02,28,17,56,0.90
2011,02,28,17,57,0.90
2011,02,28,17,58,0.90
2011,02,28,17,59,0.80
2011,02,28,18,00,0.80
2011,02,28,18,01,0.80
2011,02,28,18,02,0.90
2011,02,28,18,03,0.90
2011,02,28,18,04,1.00
2011,02,28,18,05,1.00
2011,02,28,18,06,1.00